User: anonymous   Login
Location: Unspecified
(0.0000°N, 0.0000°E)
Time: 03:08:30
(UTC+00:00)
Language:

FALCON 9 R/B - Orbit

View from above orbital plane
View from above orbital plane
View from above satellite
View from above satellite

Ground track
Ground track

The orbit data is extracted from the following two-line orbital elements,

1 41590U 16038C   24057.22922044  .00000545  00000-0  22103-2 0  9994
2 41590  21.2126 147.9090 7964828 342.6608   1.3748  1.44279415 33868
Epoch (UTC): 26 February 2024 05:30:04
Eccentricity: 0.7964828
inclination: 21.2126°
perigee height: 355 km
apogee height: 53053 km
right ascension of ascending node: 147.9090°
argument of perigee: 342.6608°
revolutions per day: 1.44279415
mean anomaly at epoch: 1.3748°
orbit number at epoch: 3386

The dashed part of the orbit path shows where the satellite is in the earth's shadow,  

DLR